Tracking 29969 objects as of 6-Dec-2024
HD Live streaming from Space Station
objects crossing your sky now

ARIANE 5 DEB

Track ARIANE 5 DEB now!


NORAD ID: 43383
Int'l Code: 2008-030F
Perigee: 754.4 km
Apogee: 33,457.5 km
Inclination: 2.1 °
Period: 596.7 minutes
Semi major axis: 23476 km
RCS: Unknown
Launch date: June 12, 2008
Source: France (FR)
Launch site: FRENCH GUIANA (FRGUI)

Note: This is SATELLITE DEBRIS
Your satellite tracking list
Your tracking list is empty




NASA's NSSDC Master Catalog

Two Line Element Set (TLE):
1 43383U 08030F   24340.76629502  .00001956  00000-0  60841-1 0  9993
2 43383   2.1118 268.2145 6964953 118.1400 327.7320  2.41346906134356
Source of the keplerian elements: AFSPC